#�ϑ�����,���ϕ���,���ϕ���,�ő啗��,�ő啗����������,�ő�u�ԕ���,�ő�u�ԕ�����������
#(�N����),(m/s)   ,(16����),(m/s)   ,(16����)        ,(m/s)       ,(16����)            
2013/2/13 0:01,0.4,10,0.4,9,0.8,12
2013/2/13 0:02,0.4,10,0.4,9,0.8,11
2013/2/13 0:03,0.4,10,0.4,9,0.6,10
2013/2/13 0:04,0.4,11,0.4,9,0.3,14
2013/2/13 0:05,0.4,11,0.4,9,1.1,15
2013/2/13 0:06,0.4,12,0.4,9,1,16
2013/2/13 0:07,0.4,12,0.4,9,0.4,16
2013/2/13 0:08,0.5,13,0.5,13,1.4,16
2013/2/13 0:09,0.6,14,0.6,14,1.5,16
2013/2/13 0:10,0.5,14,0.6,14,1.1,16
2013/2/13 0:11,0.5,15,0.5,14,0.9,16
2013/2/13 0:12,0.5,15,0.5,14,0.5,15
2013/2/13 0:13,0.5,15,0.5,14,0.1,11
2013/2/13 0:14,0.5,15,0.5,14,0.9,12
2013/2/13 0:15,0.5,15,0.5,14,1,11
2013/2/13 0:16,0.6,14,0.6,14,1,11
2013/2/13 0:17,0.6,13,0.6,14,1.3,11
2013/2/13 0:18,0.7,13,0.7,13,1.4,11
2013/2/13 0:19,0.7,12,0.7,13,2,9
2013/2/13 0:20,0.8,11,0.8,11,2,10
2013/2/13 0:21,0.9,11,0.9,11,2.6,9
2013/2/13 0:22,1.1,10,1.1,10,2.5,10
2013/2/13 0:23,1.2,10,1.2,10,2.4,9
2013/2/13 0:24,1.3,10,1.3,10,1.8,10
2013/2/13 0:25,1.3,10,1.3,10,2.6,11
2013/2/13 0:26,1.4,10,1.4,10,1.9,11
2013/2/13 0:27,1.4,10,1.4,10,1,13
2013/2/13 0:28,1.3,10,1.3,10,1.5,10
2013/2/13 0:29,1.3,10,1.3,10,2.2,9
2013/2/13 0:30,1.3,10,1.3,10,3,10
2013/2/13 0:31,1.3,10,1.4,10,3.2,9
2013/2/13 0:32,1.3,10,1.3,10,3,9
2013/2/13 0:33,1.3,10,1.3,10,2.2,10
2013/2/13 0:34,1.2,10,1.3,10,2,8
2013/2/13 0:35,1.1,10,1.2,10,1.5,9
2013/2/13 0:36,1.2,10,1.2,10,3.2,9
2013/2/13 0:37,1.2,9,1.2,10,2.6,9
2013/2/13 0:38,1.4,9,1.4,10,3.2,10
2013/2/13 0:39,1.4,9,1.4,10,3.8,9
2013/2/13 0:40,1.4,9,1.4,10,3.7,10
2013/2/13 0:41,1.5,9,1.5,9,4.8,9
2013/2/13 0:42,1.7,10,1.7,10,4.8,11
2013/2/13 0:43,1.9,10,1.9,10,4.2,10
2013/2/13 0:44,2,10,2,10,4.1,10
2013/2/13 0:45,2.1,10,2.1,10,3.1,9
2013/2/13 0:46,2.1,10,2.2,10,2.6,9
2013/2/13 0:47,2.1,10,2.1,10,2.5,10
2013/2/13 0:48,2.1,10,2.1,10,2.9,11
2013/2/13 0:49,2.1,10,2.1,10,2.7,10
2013/2/13 0:50,2,10,2.1,10,2.2,11
2013/2/13 0:51,2,10,2.1,10,3.2,10
2013/2/13 0:52,1.9,10,2,10,2.9,10
2013/2/13 0:53,1.7,10,1.8,10,2.7,10
2013/2/13 0:54,1.6,10,1.7,10,2.5,9
2013/2/13 0:55,1.5,10,1.6,10,1.6,11
2013/2/13 0:56,1.4,10,1.5,10,1.5,9
2013/2/13 0:57,1.5,10,1.5,10,2.9,10
2013/2/13 0:58,1.4,10,1.5,10,2.1,7
2013/2/13 0:59,1.3,10,1.4,10,1.9,10
2013/2/13 1:00,1.3,10,1.3,10,1.8,10
2013/2/13 1:01,1.2,10,1.3,10,1.4,12
2013/2/13 1:02,1,11,1.1,10,0.6,12
2013/2/13 1:03,0.9,11,1,10,1.4,9
2013/2/13 1:04,0.8,10,0.9,10,1.4,9
2013/2/13 1:05,0.9,10,0.9,10,1.9,10
2013/2/13 1:06,0.9,10,0.9,10,2.2,10
2013/2/13 1:07,0.8,10,0.9,10,0.8,9
2013/2/13 1:08,0.7,11,0.7,10,0.9,9
2013/2/13 1:09,0.7,11,0.7,10,1.8,10
2013/2/13 1:10,0.7,11,0.7,10,1.5,10
2013/2/13 1:11,0.6,10,0.7,10,1.6,8
2013/2/13 1:12,0.6,10,0.6,11,0.5,6
2013/2/13 1:13,0.6,10,0.6,11,1.3,11
2013/2/13 1:14,0.6,11,0.6,10,0.5,12
2013/2/13 1:15,0.5,11,0.6,10,1.4,1
2013/2/13 1:16,0.5,12,0.5,10,1.8,15
2013/2/13 1:17,0.6,12,0.6,10,1.1,14
2013/2/13 1:18,0.6,13,0.6,11,0.6,5
2013/2/13 1:19,0.5,14,0.6,11,1.9,7
2013/2/13 1:20,0.5,3,0.5,11,1.6,4
2013/2/13 1:21,0.5,3,0.5,10,1,5
2013/2/13 1:22,0.6,4,0.6,10,1.8,6
2013/2/13 1:23,0.7,4,0.7,4,1.4,5
2013/2/13 1:24,0.7,4,0.7,4,1,4
2013/2/13 1:25,0.7,4,0.7,4,1.3,15
2013/2/13 1:26,0.7,4,0.7,4,1.3,14
2013/2/13 1:27,0.7,4,0.7,4,1.4,2
2013/2/13 1:28,0.8,4,0.8,4,1.4,2
2013/2/13 1:29,0.8,4,0.8,4,1.9,4
2013/2/13 1:30,0.8,4,0.9,4,1.8,6
2013/2/13 1:31,0.8,3,0.8,4,0.6,3
2013/2/13 1:32,0.8,3,0.9,4,1.9,10
2013/2/13 1:33,0.8,2,0.8,4,2.1,15
2013/2/13 1:34,0.9,2,0.9,4,2,15
2013/2/13 1:35,0.9,3,0.9,4,1.9,8
2013/2/13 1:36,0.9,3,0.9,4,2.5,2
2013/2/13 1:37,0.9,3,0.9,4,0.3,4
2013/2/13 1:38,0.9,8,0.9,4,2.4,10
2013/2/13 1:39,0.8,9,0.9,4,2.2,7
2013/2/13 1:40,0.8,9,0.8,3,1.8,8
2013/2/13 1:41,0.8,10,0.8,3,1,1
2013/2/13 1:42,0.8,4,0.8,2,1.1,4
2013/2/13 1:43,0.7,4,0.8,2,1.1,16
2013/2/13 1:44,0.7,2,0.7,2,1.4,15
2013/2/13 1:45,0.7,3,0.7,3,2.7,8
2013/2/13 1:46,0.7,8,0.7,3,2.6,7
2013/2/13 1:47,1,10,1,10,3.9,11
2013/2/13 1:48,1,11,1.1,10,3,12
2013/2/13 1:49,1.1,13,1.1,10,1.8,14
2013/2/13 1:50,1,13,1,10,0.9,13
2013/2/13 1:51,1,13,1.1,10,1.3,14
2013/2/13 1:52,1,13,1,10,0.9,15
2013/2/13 1:53,1.1,12,1.1,10,1.3,11
2013/2/13 1:54,1.1,12,1.1,10,1.6,8
2013/2/13 1:55,1.1,13,1.1,10,1.9,3
2013/2/13 1:56,1.1,13,1.1,10,2.1,3
2013/2/13 1:57,0.9,15,1.1,10,1.4,4
2013/2/13 1:58,0.9,16,0.9,13,1.1,4
2013/2/13 1:59,0.8,1,0.9,13,1.1,10
2013/2/13 2:00,0.9,8,0.9,13,2.4,11
2013/2/13 2:01,1,9,1,13,1.6,11
2013/2/13 2:02,1,9,1,13,1.8,9
2013/2/13 2:03,1,8,1,12,1.4,8
2013/2/13 2:04,1,8,1,12,2.4,8
2013/2/13 2:05,1.1,9,1.1,13,3.2,10
2013/2/13 2:06,1,9,1.1,14,1.9,9
2013/2/13 2:07,1,10,1,8,1.4,11
2013/2/13 2:08,1,10,1,8,1.1,15
2013/2/13 2:09,1,11,1,8,1.4,1
2013/2/13 2:10,0.9,11,1,8,1.5,1
2013/2/13 2:11,0.9,12,0.9,8,2.7,1
2013/2/13 2:12,0.9,13,0.9,8,2,15
2013/2/13 2:13,0.9,14,0.9,8,2,16
2013/2/13 2:14,1,14,1,8,1.8,16
2013/2/13 2:15,0.9,15,1,9,2.6,15
2013/2/13 2:16,0.9,15,0.9,9,2.2,15
2013/2/13 2:17,1,15,1,10,1.5,15
2013/2/13 2:18,0.9,16,0.9,10,1.1,15
2013/2/13 2:19,0.9,16,0.9,11,1.4,15
2013/2/13 2:20,0.9,15,0.9,14,1.5,15
2013/2/13 2:21,0.8,15,0.9,14,0.1,13
2013/2/13 2:22,0.7,16,0.8,14,0.8,4
2013/2/13 2:23,0.7,16,0.7,14,0.6,5
2013/2/13 2:24,0.6,16,0.6,14,0.6,5
2013/2/13 2:25,0.5,2,0.6,15,0,6
2013/2/13 2:26,0.4,4,0.5,15,0.1,6
2013/2/13 2:27,0.4,4,0.4,15,2.1,1
2013/2/13 2:28,0.5,4,0.5,16,2,1
2013/2/13 2:29,0.5,4,0.5,15,1.4,16
2013/2/13 2:30,0.5,4,0.5,15,1.4,6
2013/2/13 2:31,0.6,5,0.6,15,1.3,6
2013/2/13 2:32,0.6,5,0.6,16,0.9,7
2013/2/13 2:33,0.6,5,0.6,16,0.4,7
2013/2/13 2:34,0.6,6,0.6,16,0.3,7
2013/2/13 2:35,0.7,5,0.7,5,1.9,16
2013/2/13 2:36,0.8,4,0.8,5,1.8,16
2013/2/13 2:37,0.7,5,0.8,5,1.3,9
2013/2/13 2:38,0.7,6,0.8,5,2.1,9
2013/2/13 2:39,0.8,7,0.8,5,2.7,7
2013/2/13 2:40,0.8,8,0.8,5,2.2,10
2013/2/13 2:41,0.8,9,0.8,5,1.4,10
2013/2/13 2:42,0.9,10,0.9,10,1.9,13
2013/2/13 2:43,0.9,12,0.9,10,1.1,13
2013/2/13 2:44,1,13,1,12,1.1,16
2013/2/13 2:45,1,13,1,12,1,16
2013/2/13 2:46,0.9,13,1,12,1.5,14
2013/2/13 2:47,0.9,14,0.9,12,1,16
2013/2/13 2:48,0.8,14,0.9,12,1.5,15
2013/2/13 2:49,0.8,15,0.8,12,1.4,15
2013/2/13 2:50,0.8,15,0.8,12,1.6,16
2013/2/13 2:51,0.8,16,0.8,12,1.4,1
2013/2/13 2:52,0.8,16,0.8,12,1.9,1
2013/2/13 2:53,0.8,16,0.8,12,1.3,2
2013/2/13 2:54,0.8,1,0.8,13,1.1,4
2013/2/13 2:55,0.8,1,0.8,13,1.4,5
2013/2/13 2:56,0.9,2,0.9,13,1.5,5
2013/2/13 2:57,1,2,1,2,1.5,5
2013/2/13 2:58,1,3,1,2,1.4,5
2013/2/13 2:59,1,4,1,2,0.9,5
2013/2/13 3:00,0.8,4,0.9,2,0.1,6
2013/2/13 3:01,0.8,4,0.8,2,0.1,16
2013/2/13 3:02,0.6,5,0.8,2,0,15
2013/2/13 3:03,0.6,5,0.6,2,0,9
2013/2/13 3:04,0.5,5,0.6,2,0,11
2013/2/13 3:05,0.4,5,0.5,2,0,5
2013/2/13 3:06,0.3,5,0.4,2,0,5
2013/2/13 3:07,0.2,6,0.3,3,0,12
2013/2/13 3:08,0,7,0.1,3,0,11
2013/2/13 3:09,0,8,0,4,0,5
2013/2/13 3:10,0,8,0,4,0,11
2013/2/13 3:11,0,7,0,4,0,1
2013/2/13 3:12,0.1,3,0.1,5,1.9,1
2013/2/13 3:13,0.1,3,0.1,5,1.5,1
2013/2/13 3:14,0.2,3,0.2,5,0.8,1
2013/2/13 3:15,0.2,3,0.2,5,1.3,7
2013/2/13 3:16,0.3,4,0.3,5,2,7
2013/2/13 3:17,0.5,5,0.5,5,1.9,8
2013/2/13 3:18,0.6,5,0.6,5,1.8,8
2013/2/13 3:19,0.6,5,0.6,5,0.6,4
2013/2/13 3:20,0.6,5,0.6,5,1,5
2013/2/13 3:21,0.7,5,0.7,5,0.8,11
2013/2/13 3:22,0.7,5,0.7,5,1.4,1
2013/2/13 3:23,0.6,5,0.7,5,1.3,1
2013/2/13 3:24,0.6,6,0.6,5,0.8,9
2013/2/13 3:25,0.6,7,0.6,5,1.5,10
2013/2/13 3:26,0.7,8,0.7,5,2.5,9
2013/2/13 3:27,0.7,8,0.7,5,1.8,9
2013/2/13 3:28,0.7,8,0.7,5,1.5,8
2013/2/13 3:29,0.7,9,0.7,5,1,15
2013/2/13 3:30,0.7,10,0.7,5,1.1,15
2013/2/13 3:31,0.7,10,0.7,5,1.4,16
2013/2/13 3:32,0.8,11,0.8,11,1.8,16
2013/2/13 3:33,0.8,12,0.8,11,1.6,16
2013/2/13 3:34,0.8,12,0.8,11,0.5,4
2013/2/13 3:35,0.8,4,0.8,11,0.6,4
2013/2/13 3:36,0.7,5,0.8,11,1.9,9
2013/2/13 3:37,0.7,5,0.7,11,2.1,9
2013/2/13 3:38,0.7,1,0.7,11,1,7
2013/2/13 3:39,0.7,1,0.7,11,3.7,16
2013/2/13 3:40,0.9,2,0.9,1,3.8,16
2013/2/13 3:41,0.9,1,0.9,1,1.9,2
2013/2/13 3:42,0.8,2,0.9,1,0.4,13
2013/2/13 3:43,0.8,16,0.8,1,1.3,13
2013/2/13 3:44,0.8,16,0.8,1,0.6,1
2013/2/13 3:45,0.9,15,0.9,1,1.8,16
2013/2/13 3:46,0.9,16,0.9,1,1.8,1
2013/2/13 3:47,0.8,1,0.9,1,2,4
2013/2/13 3:48,0.9,16,0.9,1,1.1,16
2013/2/13 3:49,0.8,16,0.9,1,1.3,15
2013/2/13 3:50,0.6,16,0.8,2,2.2,10
2013/2/13 3:51,0.7,15,0.7,1,2.4,10
2013/2/13 3:52,0.7,16,0.7,15,0.5,11
2013/2/13 3:53,0.7,16,0.7,15,0.9,1
2013/2/13 3:54,0.8,16,0.8,15,1.6,15
2013/2/13 3:55,0.8,15,0.8,15,1.4,15
2013/2/13 3:56,0.8,15,0.8,16,1.4,5
2013/2/13 3:57,0.7,15,0.8,16,1.6,3
2013/2/13 3:58,0.8,16,0.8,1,2,2
2013/2/13 3:59,0.8,1,0.8,16,1.4,3
2013/2/13 4:00,0.9,2,0.9,2,1.3,5
2013/2/13 4:01,0.8,2,0.8,2,1.1,13
2013/2/13 4:02,0.8,2,0.8,2,1.4,10
2013/2/13 4:03,0.9,1,0.9,2,1.8,15
2013/2/13 4:04,1,2,1,2,2.9,1
2013/2/13 4:05,1.1,2,1.1,2,3,1
2013/2/13 4:06,1.2,1,1.2,2,2.6,16
2013/2/13 4:07,1.2,15,1.2,2,2.5,15
2013/2/13 4:08,1.1,14,1.2,2,0.8,12
2013/2/13 4:09,1.1,13,1.1,2,1.6,12
2013/2/13 4:10,1.2,14,1.2,2,2.9,14
2013/2/13 4:11,1.4,14,1.4,14,3.6,11
2013/2/13 4:12,1.6,14,1.6,14,4.1,11
2013/2/13 4:13,1.7,13,1.7,14,3.9,12
2013/2/13 4:14,1.7,13,1.7,14,2.9,2
2013/2/13 4:15,1.9,13,1.9,13,7.6,1
2013/2/13 4:16,1.8,13,1.9,13,2.1,8
2013/2/13 4:17,1.8,13,1.8,13,2.9,15
2013/2/13 4:18,1.9,14,1.9,13,2.9,16
2013/2/13 4:19,2.1,14,2.1,14,3.9,16
2013/2/13 4:20,2,14,2.1,14,4.2,15
2013/2/13 4:21,2,15,2,14,4.4,15
2013/2/13 4:22,2,15,2,14,5.4,15
2013/2/13 4:23,2.1,16,2.1,14,4.7,16
2013/2/13 4:24,2.1,16,2.1,14,4.5,16
2013/2/13 4:25,2,16,2,14,4.1,16
2013/2/13 4:26,2.1,16,2.1,14,3.5,15
2013/2/13 4:27,2.2,16,2.2,16,6.1,15
2013/2/13 4:28,2.3,16,2.3,16,9.1,16
2013/2/13 4:29,2.6,16,2.6,16,7.9,16
2013/2/13 4:30,3.4,16,3.4,16,12.3,1
2013/2/13 4:31,3.7,16,3.7,16,11.7,16
2013/2/13 4:32,3.8,16,3.8,16,6.5,16
2013/2/13 4:33,4.1,16,4.1,16,10.6,15
2013/2/13 4:34,4.5,16,4.5,16,10,15
2013/2/13 4:35,4.7,16,4.8,16,7.9,16
2013/2/13 4:36,4.9,16,4.9,16,7.1,15
2013/2/13 4:37,5.5,16,5.5,16,13.1,1
2013/2/13 4:38,5.5,16,5.6,16,8.7,16
2013/2/13 4:39,5.2,16,5.5,16,4.3,1
2013/2/13 4:40,4.8,15,5.1,16,9.2,15
2013/2/13 4:41,4.9,15,4.9,16,11.6,15
2013/2/13 4:42,5.2,16,5.2,16,9.9,16
2013/2/13 4:43,5.1,16,5.3,16,9.3,15
2013/2/13 4:44,4.8,15,5.1,16,5.4,15
2013/2/13 4:45,4.7,15,4.8,16,5,16
2013/2/13 4:46,4.9,15,4.9,16,12.1,14
2013/2/13 4:47,4.8,15,5,16,10,13
2013/2/13 4:48,4.7,15,4.7,16,7,1
2013/2/13 4:49,5,15,5,16,7.2,16
2013/2/13 4:50,4.8,16,5,16,4.9,15
2013/2/13 4:51,4.6,15,4.8,16,9.5,16
2013/2/13 4:52,4.7,15,4.7,16,13.4,15
2013/2/13 4:53,4.8,16,4.8,16,11.3,16
2013/2/13 4:54,4.5,16,4.7,15,3.8,16
2013/2/13 4:55,4.3,16,4.5,15,2.2,5
2013/2/13 4:56,4,16,4.3,15,3.8,3
2013/2/13 4:57,3.5,1,3.9,15,2.9,2
2013/2/13 4:58,3.4,1,3.5,15,4.4,16
2013/2/13 4:59,3.3,1,3.4,15,9.1,16
2013/2/13 5:00,3.4,16,3.4,16,5.8,15
2013/2/13 5:01,3.2,16,3.4,15,5.4,15
2013/2/13 5:02,2.6,16,3.1,15,3.6,13
2013/2/13 5:03,2.3,16,2.5,16,3.3,13
2013/2/13 5:04,2.4,15,2.4,16,4.7,12
2013/2/13 5:05,2.6,15,2.6,16,7.9,16
2013/2/13 5:06,2.7,15,2.7,16,5.8,15
2013/2/13 5:07,3,15,3,1,8.9,16
2013/2/13 5:08,3,15,3,1,7.1,15
2013/2/13 5:09,3.1,14,3.2,1,9.7,15
2013/2/13 5:10,3.3,14,3.3,16,7.6,13
2013/2/13 5:11,3.4,14,3.4,14,7.2,16
2013/2/13 5:12,4,15,4,15,11.6,15
2013/2/13 5:13,4.3,15,4.3,15,8.3,14
2013/2/13 5:14,4.5,15,4.5,15,7.4,15
2013/2/13 5:15,4.6,14,4.7,15,6,13
2013/2/13 5:16,4.8,14,4.8,14,7.9,15
2013/2/13 5:17,4.8,14,4.9,14,6.1,14
2013/2/13 5:18,4.7,14,4.9,14,5,15
2013/2/13 5:19,4.6,14,4.7,14,5.4,14
2013/2/13 5:20,4.6,14,4.6,14,7,14
2013/2/13 5:21,4.4,14,4.6,14,5,14
2013/2/13 5:22,3.9,14,4.3,14,6.9,2
2013/2/13 5:23,3.9,15,3.9,14,6.9,16
2013/2/13 5:24,3.9,15,3.9,14,7,16
2013/2/13 5:25,3.9,15,3.9,14,7.5,16
2013/2/13 5:26,3.9,15,3.9,14,7.9,1
2013/2/13 5:27,4,15,4,14,8.3,15
2013/2/13 5:28,4,15,4,14,6.4,16
2013/2/13 5:29,4.2,15,4.2,14,8.6,1
2013/2/13 5:30,4.2,15,4.2,14,9.2,16
2013/2/13 5:31,4.5,16,4.5,16,8.2,15
2013/2/13 5:32,4.5,16,4.6,16,4.3,16
2013/2/13 5:33,4.2,15,4.4,16,2.7,14
2013/2/13 5:34,3.9,15,4.1,16,3.8,15
2013/2/13 5:35,3.7,15,3.9,16,5.2,16
2013/2/13 5:36,3.5,15,3.7,16,5.4,13
2013/2/13 5:37,3.1,15,3.5,16,3.2,14
2013/2/13 5:38,3,15,3.2,16,3.3,15
2013/2/13 5:39,2.9,15,3,16,6.1,15
2013/2/13 5:40,2.9,15,3.1,16,10.2,14
2013/2/13 5:41,2.7,15,2.9,16,4.5,14
2013/2/13 5:42,2.7,14,2.7,15,4.1,14
2013/2/13 5:43,2.9,14,2.9,16,6.8,12
2013/2/13 5:44,3.2,14,3.2,15,6.1,16
2013/2/13 5:45,3.3,14,3.3,15,6.7,15
2013/2/13 5:46,3.5,14,3.5,15,9,16
2013/2/13 5:47,3.9,14,3.9,14,9.2,15
2013/2/13 5:48,4,14,4,14,7.9,16
2013/2/13 5:49,4.1,15,4.2,15,7,16
2013/2/13 5:50,3.9,15,4,15,7.9,1
2013/2/13 5:51,3.9,15,3.9,15,8.7,16
2013/2/13 5:52,4.2,15,4.2,15,10.5,16
2013/2/13 5:53,4.3,16,4.3,15,7.2,15
2013/2/13 5:54,4.5,15,4.5,15,7.2,11
2013/2/13 5:55,4.3,15,4.4,15,5.4,16
2013/2/13 5:56,4,15,4.3,15,4.7,16
2013/2/13 5:57,3.9,15,4,15,6.2,16
2013/2/13 5:58,3.9,15,3.9,15,6,1
2013/2/13 5:59,4,15,4,15,8.1,14
2013/2/13 6:00,4.2,15,4.2,15,7.2,14
2013/2/13 6:01,4.1,15,4.2,15,6,13
2013/2/13 6:02,3.9,15,4,15,6.3,16
2013/2/13 6:03,3.7,14,3.8,15,7,14
2013/2/13 6:04,3.5,14,3.7,15,6,14
2013/2/13 6:05,3.5,14,3.6,15,4.4,10
2013/2/13 6:06,3.7,14,3.7,15,6.4,14
2013/2/13 6:07,3.7,14,3.8,15,5.6,16
2013/2/13 6:08,3.7,14,3.8,15,6.8,13
2013/2/13 6:09,3.6,14,3.7,15,5.7,16
2013/2/13 6:10,3.5,14,3.6,14,6.1,1
2013/2/13 6:11,3.6,14,3.6,15,7.6,1
2013/2/13 6:12,3.5,14,3.6,15,5.4,1
2013/2/13 6:13,3.4,15,3.5,14,4.7,1
2013/2/13 6:14,3.3,15,3.4,14,6,16
2013/2/13 6:15,3.3,15,3.3,14,4.2,14
2013/2/13 6:16,3.2,15,3.3,14,7.2,15
2013/2/13 6:17,3.3,15,3.3,14,8.6,16
2013/2/13 6:18,3.6,15,3.6,14,10.6,1
2013/2/13 6:19,3.7,16,3.7,15,7.8,15
2013/2/13 6:20,3.5,15,3.6,15,3.5,14
2013/2/13 6:21,3.7,15,3.7,15,10.6,16
2013/2/13 6:22,3.9,15,3.9,15,7.9,14
2013/2/13 6:23,4.1,15,4.1,15,7.8,12
2013/2/13 6:24,4.1,14,4.2,14,4.3,15
2013/2/13 6:25,4.1,14,4.1,14,7.9,14
2013/2/13 6:26,4,14,4.2,14,6.1,13
2013/2/13 6:27,4.2,14,4.4,14,14.5,15
2013/2/13 6:28,4,14,4.2,14,8.7,16
2013/2/13 6:29,3.8,14,4,14,7.2,15
2013/2/13 6:30,4.2,14,4.2,14,11.5,15
2013/2/13 6:31,4.1,14,4.3,14,7.8,16
2013/2/13 6:32,4.2,15,4.2,14,7.8,1
2013/2/13 6:33,4.3,15,4.3,14,8.6,15
2013/2/13 6:34,4.7,15,4.7,15,9.7,16
2013/2/13 6:35,5,15,5,15,13,15
2013/2/13 6:36,5.2,15,5.2,15,7.1,15
2013/2/13 6:37,5,15,5.2,15,7,15
2013/2/13 6:38,5.3,15,5.3,15,14.1,16
2013/2/13 6:39,5.6,15,5.6,15,7.9,15
2013/2/13 6:40,5.4,15,5.6,15,8.5,14
2013/2/13 6:41,5.2,15,5.4,15,7.2,14
2013/2/13 6:42,5.1,15,5.3,15,10.5,15
2013/2/13 6:43,5,15,5.1,15,5.8,13
2013/2/13 6:44,4.8,15,4.9,15,10.9,14
2013/2/13 6:45,4.8,15,4.8,15,9.8,15
2013/2/13 6:46,4.8,15,4.8,15,7.5,16
2013/2/13 6:47,4.6,15,4.8,15,5,15
2013/2/13 6:48,4.1,15,4.6,15,3.5,16
2013/2/13 6:49,3.9,15,4.1,15,6.7,1
2013/2/13 6:50,3.8,15,3.9,15,6.7,15
2013/2/13 6:51,3.8,15,3.9,15,4.9,1
2013/2/13 6:52,3.8,15,3.8,15,7.7,15
2013/2/13 6:53,3.7,15,3.8,15,4.9,14
2013/2/13 6:54,3.4,15,3.7,15,5.2,1
2013/2/13 6:55,3,16,3.3,15,5.7,1
2013/2/13 6:56,3.1,16,3.1,15,8.6,15
2013/2/13 6:57,3.2,16,3.2,15,7.4,15
2013/2/13 6:58,3.7,16,3.7,15,11.5,1
2013/2/13 6:59,3.7,16,3.7,15,8.2,1
2013/2/13 7:00,3.7,16,3.7,15,6.3,16
2013/2/13 7:01,3.8,16,3.8,15,6.7,1
2013/2/13 7:02,3.7,16,3.8,15,7,14
2013/2/13 7:03,3.8,16,3.8,16,5.8,2
2013/2/13 7:04,3.8,16,3.8,16,6,2
2013/2/13 7:05,3.8,16,3.8,16,6.8,1
2013/2/13 7:06,3.8,16,3.8,16,8.7,14
2013/2/13 7:07,3.6,15,3.8,16,5.6,14
2013/2/13 7:08,3,16,3.5,16,2.9,1
2013/2/13 7:09,3.1,16,3.1,16,5.7,16
2013/2/13 7:10,2.9,16,3,16,5.2,16
2013/2/13 7:11,2.8,16,2.9,16,3,1
2013/2/13 7:12,2.6,16,2.8,16,4.9,13
2013/2/13 7:13,2.6,16,2.7,16,4.9,14
2013/2/13 7:14,2.6,16,2.6,16,3.3,2
2013/2/13 7:15,2.6,16,2.6,16,8.2,1
2013/2/13 7:16,3,16,3,16,13.8,1
2013/2/13 7:17,3.5,16,3.5,16,13.2,1
2013/2/13 7:18,3.5,16,3.5,16,3.5,2
2013/2/13 7:19,3.7,16,3.7,16,7,1
2013/2/13 7:20,3.7,16,3.7,16,5.7,16
2013/2/13 7:21,3.7,16,3.7,16,4.8,13
2013/2/13 7:22,4,16,4,16,6.9,16
2013/2/13 7:23,3.9,16,4,16,4.1,1
2013/2/13 7:24,4,16,4,16,5.1,3
2013/2/13 7:25,3.9,16,4,16,6.5,15
2013/2/13 7:26,3.3,16,3.8,16,5.2,16
2013/2/13 7:27,2.9,16,3.2,16,4.8,13
2013/2/13 7:28,2.9,16,2.9,16,4.2,15
2013/2/13 7:29,2.6,15,2.9,16,2.2,13
2013/2/13 7:30,2.3,15,2.5,16,2.1,14
2013/2/13 7:31,2.4,15,2.4,16,6.9,14
2013/2/13 7:32,2.3,15,2.4,16,7.1,13
2013/2/13 7:33,2.2,15,2.3,16,3,2
2013/2/13 7:34,2.1,14,2.2,16,3.9,15
2013/2/13 7:35,1.9,14,2.1,16,2,13
2013/2/13 7:36,1.7,14,1.9,16,2.1,12
2013/2/13 7:37,1.7,13,1.7,16,3.1,12
2013/2/13 7:38,1.7,13,1.7,16,2.7,15
2013/2/13 7:39,1.7,14,1.7,15,3.3,16
2013/2/13 7:40,2.1,14,2.1,15,8.5,14
2013/2/13 7:41,2.3,14,2.3,15,11.8,16
2013/2/13 7:42,2.4,14,2.4,14,7.4,15
2013/2/13 7:43,2.7,14,2.7,14,5.7,15
2013/2/13 7:44,2.8,15,2.9,15,8.3,3
2013/2/13 7:45,2.9,14,2.9,15,3.5,13
2013/2/13 7:46,3.1,14,3.1,14,5.1,13
2013/2/13 7:47,2.9,15,3,14,1.8,3
2013/2/13 7:48,2.9,15,2.9,14,1.8,15
2013/2/13 7:49,2.8,14,2.9,14,2.9,9
2013/2/13 7:50,2.5,14,2.7,14,5.7,10
2013/2/13 7:51,2,14,2.4,14,2.6,13
2013/2/13 7:52,1.8,13,2,14,1.6,6
2013/2/13 7:53,1.6,13,1.8,14,3.8,16
2013/2/13 7:54,1.3,13,1.5,14,2.7,1
2013/2/13 7:55,1.4,13,1.4,14,5.5,13
2013/2/13 7:56,1.5,13,1.5,15,6.4,14
2013/2/13 7:57,1.8,13,1.8,15,6.7,15
2013/2/13 7:58,2,14,2,15,5.4,16
2013/2/13 7:59,2,14,2,14,3.2,1
2013/2/13 8:00,2,14,2,14,6.4,16
2013/2/13 8:01,2.3,15,2.3,15,7.2,16
2013/2/13 8:02,2.6,15,2.6,15,6.7,15
2013/2/13 8:03,2.5,15,2.5,15,2.4,2
2013/2/13 8:04,2.9,15,2.9,15,11.3,2
2013/2/13 8:05,3,15,3,15,6.1,16
2013/2/13 8:06,2.9,15,3.1,15,3.9,15
2013/2/13 8:07,2.8,15,2.9,15,4.2,16
2013/2/13 8:08,2.9,15,2.9,15,6.7,13
2013/2/13 8:09,3,14,3,15,3.9,13
2013/2/13 8:10,3,15,3.1,15,2.2,12
2013/2/13 8:11,2.8,15,3,15,2.9,3
2013/2/13 8:12,2.7,15,2.7,15,5.7,3
2013/2/13 8:13,2.8,15,2.8,15,5.1,1
2013/2/13 8:14,2.5,15,2.8,15,4.3,16
2013/2/13 8:15,2.4,15,2.6,15,5,16
2013/2/13 8:16,2.4,16,2.4,14,4.1,15
2013/2/13 8:17,2.6,16,2.6,14,7.7,16
2013/2/13 8:18,2.4,16,2.6,14,5,16
2013/2/13 8:19,2.5,16,2.5,14,5.7,12
2013/2/13 8:20,2.7,16,2.7,15,6.1,11
2013/2/13 8:21,2.8,15,2.8,15,6.2,5
2013/2/13 8:22,2.9,15,2.9,15,9,13
2013/2/13 8:23,3.3,15,3.3,15,12.2,15
2013/2/13 8:24,3.5,15,3.6,15,8.3,14
2013/2/13 8:25,3.5,15,3.5,15,3.7,15
2013/2/13 8:26,3.4,15,3.5,15,2.5,13
2013/2/13 8:27,3.1,15,3.4,15,2,4
2013/2/13 8:28,3,15,3.1,15,3.2,16
2013/2/13 8:29,3.1,16,3.1,15,7.6,16
2013/2/13 8:30,3,15,3.1,15,5.4,12
2013/2/13 8:31,2.8,15,2.9,15,1.8,4
2013/2/13 8:32,2.6,15,2.8,15,3.6,1
2013/2/13 8:33,2.2,16,2.5,15,5.2,14
2013/2/13 8:34,2.3,16,2.3,15,8.7,13
2013/2/13 8:35,2.5,15,2.5,15,8.7,13
2013/2/13 8:36,2.7,15,2.7,15,8.1,16
2013/2/13 8:37,3.2,15,3.2,15,8.5,16
2013/2/13 8:38,3.4,15,3.4,15,8.9,16
2013/2/13 8:39,3.7,15,3.7,15,9.3,16
2013/2/13 8:40,4.1,16,4.1,16,10.9,15
2013/2/13 8:41,4.5,16,4.5,16,11.5,15
2013/2/13 8:42,4.9,16,4.9,16,11.3,2
2013/2/13 8:43,5.2,16,5.2,16,9.9,16
2013/2/13 8:44,5.2,16,5.3,16,8.9,15
2013/2/13 8:45,5.4,16,5.4,16,8.9,1
2013/2/13 8:46,5.9,16,5.9,16,13.3,1
2013/2/13 8:47,5.9,16,6.1,16,14.4,1
2013/2/13 8:48,5.9,16,6,16,7.5,15
2013/2/13 8:49,6,16,6.1,16,12.5,16
2013/2/13 8:50,6,1,6.1,16,11.9,16
2013/2/13 8:51,6.2,16,6.2,16,12.1,15
2013/2/13 8:52,6,16,6.1,16,6.8,16
2013/2/13 8:53,5.8,16,5.9,16,7.6,1
2013/2/13 8:54,5.9,16,6,16,9.5,1
2013/2/13 8:55,5.8,16,5.9,16,9.4,1
2013/2/13 8:56,5.5,16,5.7,16,13.9,14
2013/2/13 8:57,5.5,16,5.5,16,8.9,15
2013/2/13 8:58,5.5,16,5.5,16,6.5,1
2013/2/13 8:59,5.1,16,5.5,16,6.4,1
2013/2/13 9:00,4.6,16,5.1,16,2.2,13
2013/2/13 9:01,4.1,16,4.6,16,3.3,1
2013/2/13 9:02,3.9,1,4.1,16,4.1,3
2013/2/13 9:03,4.5,1,4.5,16,15.6,16
2013/2/13 9:04,4.5,1,4.5,16,10.5,16
2013/2/13 9:05,4.6,16,4.6,16,10.3,16
2013/2/13 9:06,4.3,16,4.7,16,6.2,1
2013/2/13 9:07,3.8,1,4.3,16,2.5,16
2013/2/13 9:08,3.5,1,3.8,16,1.9,14
2013/2/13 9:09,3.4,16,3.4,16,3.6,12
2013/2/13 9:10,3.5,16,3.5,16,5,10
2013/2/13 9:11,3.7,15,3.7,16,6.2,8
2013/2/13 9:12,3.8,13,3.8,16,5.8,9
2013/2/13 9:13,3.3,11,3.8,16,8.6,9
2013/2/13 9:14,2.8,10,3.2,16,5.2,9
2013/2/13 9:15,2.5,10,2.7,16,4.4,1
2013/2/13 9:16,2.5,10,2.5,16,5.2,1
2013/2/13 9:17,2.6,11,2.6,1,3.3,16
2013/2/13 9:18,2.7,10,2.7,15,3.5,4
2013/2/13 9:19,2.6,9,2.6,15,3.8,7
2013/2/13 9:20,2.4,11,2.6,15,3.7,11
2013/2/13 9:21,2.3,16,2.4,15,5.4,2
2013/2/13 9:22,2.6,16,2.6,13,7.9,16
2013/2/13 9:23,2.6,16,2.7,11,8.1,16
2013/2/13 9:24,2.8,16,2.8,16,5.7,1
2013/2/13 9:25,3.1,16,3.1,16,10.1,16
2013/2/13 9:26,3.3,16,3.4,16,11,16
2013/2/13 9:27,3.2,16,3.3,16,4.4,16
2013/2/13 9:28,3.2,16,3.3,16,3.7,1
2013/2/13 9:29,3.5,16,3.5,16,6.3,1
2013/2/13 9:30,3.9,1,3.9,1,10.2,16
2013/2/13 9:31,4.2,16,4.2,16,8.2,15
2013/2/13 9:32,3.9,16,4.2,16,6.1,12
2013/2/13 9:33,3.6,16,3.9,16,3.3,11
2013/2/13 9:34,3.7,16,3.8,16,9,15
2013/2/13 9:35,3.5,16,3.7,16,3.6,3
2013/2/13 9:36,3.1,16,3.4,16,5.5,16
2013/2/13 9:37,3.3,16,3.3,16,7.8,15
2013/2/13 9:38,3.3,16,3.3,16,2.2,3
2013/2/13 9:39,3.1,15,3.2,16,4.4,16
2013/2/13 9:40,2.9,15,3.1,16,7.9,16
2013/2/13 9:41,2.6,15,2.9,16,6.7,8
2013/2/13 9:42,2.7,15,2.7,16,5.1,1
2013/2/13 9:43,2.8,16,2.8,16,4.7,1
2013/2/13 9:44,2.6,16,2.8,16,4.8,2
2013/2/13 9:45,2.6,16,2.7,16,8.6,16
2013/2/13 9:46,2.7,15,2.7,16,5.8,13
2013/2/13 9:47,3,15,3,16,11.4,14
2013/2/13 9:48,3.4,14,3.4,14,8.4,13
2013/2/13 9:49,3.7,14,3.8,14,15.6,13
2013/2/13 9:50,3.6,13,3.7,14,7.9,11
2013/2/13 9:51,3.6,14,3.6,14,5.8,2
2013/2/13 9:52,3.6,14,3.6,14,6.9,16
2013/2/13 9:53,3.7,15,3.7,14,7.8,16
2013/2/13 9:54,3.8,15,3.8,14,6,15
2013/2/13 9:55,3.8,14,3.8,14,5.2,2
2013/2/13 9:56,4.1,15,4.1,15,9.4,16
2013/2/13 9:57,4,15,4.2,15,9.8,15
2013/2/13 9:58,3.8,15,3.9,15,8.2,16
2013/2/13 9:59,3.8,16,3.9,15,10.5,15
2013/2/13 10:00,3.8,16,3.8,15,6.5,2
2013/2/13 10:01,4.3,16,4.3,16,14.3,16
2013/2/13 10:02,4.4,16,4.4,16,7.6,10
2013/2/13 10:03,4.3,16,4.4,16,6,1
2013/2/13 10:04,4.7,16,4.7,16,14.9,16
2013/2/13 10:05,5,16,5,16,13.8,1
2013/2/13 10:06,4.7,16,5,16,9.5,13
2013/2/13 10:07,4.5,16,4.6,16,6.3,4
2013/2/13 10:08,4.7,16,4.7,16,9.2,1
2013/2/13 10:09,4.8,16,4.8,16,8.1,16
2013/2/13 10:10,4.9,16,4.9,16,8.6,16
2013/2/13 10:11,5,16,5,16,12.4,16
2013/2/13 10:12,5.3,16,5.3,16,11.3,15
2013/2/13 10:13,5.4,15,5.4,16,8.6,16
2013/2/13 10:14,5.1,15,5.4,16,9.7,15
2013/2/13 10:15,5.1,15,5.1,16,10,16
2013/2/13 10:16,5.7,16,5.7,16,17.1,15
2013/2/13 10:17,6.1,15,6.1,15,10.9,13
2013/2/13 10:18,5.9,15,6.1,15,10.7,16
2013/2/13 10:19,6,15,6,15,9.2,2
2013/2/13 10:20,6,15,6,15,8.3,15
2013/2/13 10:21,5.6,15,6,15,8.5,15
2013/2/13 10:22,5.4,15,5.6,15,8.4,15
2013/2/13 10:23,5.1,15,5.3,15,4.9,14
2013/2/13 10:24,4.9,15,5.1,15,4.2,14
2013/2/13 10:25,4.5,15,4.8,15,2.7,6
2013/2/13 10:26,3.8,15,4.5,15,4.8,15
2013/2/13 10:27,3.7,15,3.8,15,9.1,3
2013/2/13 10:28,3.6,15,3.7,15,5.5,15
2013/2/13 10:29,3.6,15,3.6,15,12.1,16
2013/2/13 10:30,3.9,15,3.9,15,14.1,15
2013/2/13 10:31,3.8,15,4,15,10.6,16
2013/2/13 10:32,3.7,15,3.8,15,4.4,12
2013/2/13 10:33,3.9,15,3.9,15,7.4,11
2013/2/13 10:34,4,15,4,15,6.1,2
2013/2/13 10:35,4.3,16,4.3,15,7,1
2013/2/13 10:36,4.8,15,4.8,15,10.9,14
2013/2/13 10:37,4.6,15,4.8,15,9.3,11
2013/2/13 10:38,5,15,5,15,14.8,16
2013/2/13 10:39,4.9,15,5,15,11.6,16
2013/2/13 10:40,5,16,5.1,16,14.5,15
2013/2/13 10:41,5.1,16,5.1,16,8.1,15
2013/2/13 10:42,5.5,16,5.5,16,12.3,15
2013/2/13 10:43,5.3,16,5.5,16,5.6,14
2013/2/13 10:44,5.3,16,5.4,16,7.1,2
2013/2/13 10:45,5.1,16,5.3,16,6.2,15
2013/2/13 10:46,4.7,16,5,16,5.1,3
2013/2/13 10:47,4.8,16,4.8,16,10.6,16
2013/2/13 10:48,4.5,16,4.8,16,8.5,15
2013/2/13 10:49,4.1,16,4.5,16,3.1,13
2013/2/13 10:50,3.5,16,4,16,4.9,7
2013/2/13 10:51,3.4,16,3.5,16,5.8,3
2013/2/13 10:52,3.2,1,3.4,16,9.9,16
2013/2/13 10:53,3.7,1,3.7,16,14.2,1
2013/2/13 10:54,4,16,4,16,12.1,14
2013/2/13 10:55,4.2,16,4.2,16,10.5,15
2013/2/13 10:56,4.4,16,4.4,16,7.5,15
2013/2/13 10:57,4.1,16,4.4,16,5,1
2013/2/13 10:58,4.2,16,4.2,16,11.7,1
2013/2/13 10:59,4.6,1,4.6,1,12.6,1
2013/2/13 11:00,5,16,5,16,9.2,12
2013/2/13 11:01,4.9,16,5,16,8.9,12
2013/2/13 11:02,4.7,16,5,16,7.6,12
2013/2/13 11:03,4.4,15,4.7,16,7,15
2013/2/13 11:04,4.3,15,4.5,16,9.5,16
2013/2/13 11:05,4.3,16,4.4,16,11.6,16